EW6470 Weather Reports


Display with metric or nautical units.
time (UTC)temp
F
wind
direction
speed
MPH
gust
MPH
rain 1hr
in
rain 24hr
in
rain mn
in
humidity
%
barometer
mb
20260502230034 50 248 1.0 3.0 0.00 0.06 0.03 54 1016.9
20260502225510 50 277 1.0 4.0 0.00 0.06 0.03 54 1016.7
20260502225008 50 51 0.0 4.0 0.00 0.06 0.03 56 1016.8
20260502224528 50 126 1.0 5.0 0.00 0.06 0.03 54 1016.9
20260502224013 49 207 1.0 6.0 0.00 0.06 0.03 55 1016.8
20260502223512 49 215 1.0 6.0 0.00 0.06 0.03 55 1017.1
20260502223038 49 63 0.0 3.0 0.00 0.06 0.03 60 1017.0
20260502222511 49 124 0.0 3.0 0.00 0.06 0.03 58 1016.9
20260502222010 49 86 1.0 6.0 0.00 0.06 0.03 59 1016.8
20260502221529 49 273 0.0 6.0 0.00 0.06 0.03 59 1016.7
20260502221008 49 182 2.0 6.0 0.00 0.06 0.03 59 1016.8
20260502220511 49 143 0.0 3.0 0.00 0.06 0.03 58 1016.7
20260502220028 49 10 0.0 3.0 0.00 0.06 0.03 59 1016.6
20260502215513 48 15 1.0 4.0 0.00 0.06 0.03 61 1016.4
20260502215010 48 122 1.0 4.0 0.00 0.06 0.03 64 1016.5
20260502214532 48 85 1.0 4.0 0.00 0.06 0.03 61 1016.4
20260502214015 48 85 1.0 3.0 0.00 0.06 0.03 64 1016.4
20260502213510 47 277 1.0 3.0 0.00 0.06 0.03 62 1016.4
20260502213028 47 80 0.0 3.0 0.00 0.06 0.03 67 1016.3
20260502212510 46 57 2.0 3.0 0.00 0.06 0.03 66 1016.1
20260502212009 46 132 0.0 2.0 0.00 0.06 0.03 69 1016.2
20260502211532 45 0 1.0 2.0 0.00 0.06 0.03 67 1016.2
20260502211008 45 59 0.0 1.0 0.00 0.06 0.03 71 1016.3
20260502210510 45 60 0.0 3.0 0.00 0.06 0.03 70 1016.2
20260502210035 45 0 0.0 3.0 0.00 0.06 0.03 70 1016.3
20260502205508 45 0 1.0 2.0 0.00 0.06 0.03 69 1016.2
20260502205007 45 350 1.0 2.0 0.00 0.06 0.03 70 1016.2
20260502204529 45 40 0.0 2.0 0.00 0.06 0.03 70 1016.1
20260502204010 45 333 0.0 2.0 0.00 0.06 0.03 72 1016.1
20260502203511 44 69 0.0 2.0 0.00 0.06 0.03 73 1016.1
20260502203029 44 80 1.0 2.0 0.00 0.06 0.03 71 1016.0
20260502202511 44 17 0.0 2.0 0.00 0.06 0.03 74 1016.0
20260502202009 44 346 0.0 1.0 0.00 0.06 0.03 74 1016.0
20260502201529 44 344 0.0 1.0 0.00 0.06 0.03 72 1016.0
20260502201011 44 344 0.0 1.0 0.00 0.06 0.03 73 1015.9
20260502200514 44 0 0.0 1.0 0.00 0.06 0.03 73 1015.9
20260502200028 44 320 0.0 1.0 0.00 0.06 0.03 74 1015.8
20260502195511 43 0 0.0 1.0 0.00 0.06 0.03 75 1015.7
20260502195011 43 0 0.0 1.0 0.00 0.06 0.03 73 1015.8
20260502194533 43 268 0.0 1.0 0.00 0.06 0.03 75 1015.7
20260502194010 43 0 0.0 1.0 0.00 0.06 0.03 76 1015.5
20260502193511 43 268 0.0 1.0 0.00 0.06 0.03 76 1015.5
20260502193033 43 155 0.0 2.0 0.00 0.06 0.03 79 1015.5
20260502192511 43 0 0.0 2.0 0.00 0.06 0.03 79 1015.2
20260502192013 42 57 0.0 1.0 0.00 0.06 0.03 83 1015.3
20260502191529 42 0 0.0 2.0 0.00 0.06 0.03 83 1015.1
20260502191010 41 0 0.0 2.0 0.00 0.06 0.03 86 1015.1
20260502190511 41 43 0.0 2.0 0.00 0.06 0.03 86 1015.0
20260502190037 41 130 0.0 1.0 0.00 0.06 0.03 88 1015.1
20260502185510 41 0 0.0 1.0 0.00 0.06 0.03 87 1015.0
20260502185009 40 340 0.0 1.0 0.00 0.06 0.03 87 1014.9
20260502184530 40 0 0.0 0.0 0.00 0.06 0.03 87 1014.9
20260502184014 40 0 0.0 1.0 0.00 0.06 0.03 86 1014.7
20260502183511 40 0 0.0 1.0 0.00 0.06 0.03 86 1014.6
20260502183028 40 0 0.0 0.0 0.00 0.06 0.03 86 1014.5
20260502182509 40 0 0.0 1.0 0.00 0.06 0.03 86 1014.6
20260502182010 40 0 0.0 1.0 0.00 0.06 0.03 86 1014.6
20260502181536 40 263 0.0 2.0 0.00 0.06 0.03 87 1014.6
20260502181010 39 0 0.0 2.0 0.00 0.06 0.03 85 1014.6
20260502180512 40 254 0.0 2.0 0.00 0.06 0.03 86 1014.5
20260502170509 38 0 0.0 0.0 0.00 0.06 0.03 92 1013.2
20260502164012 37 240 0.0 2.0 0.00 0.06 0.03 93 1013.0
20260502163509 37 0 0.0 2.0 0.01 0.06 0.03 93 1013.1
20260502163039 37 0 0.0 1.0 0.01 0.06 0.03 94 1013.1
20260502162510 36 0 0.0 1.0 0.01 0.06 0.03 94 1013.0
20260502162011 36 0 0.0 1.0 0.01 0.06 0.03 94 1013.0
20260502161528 36 0 0.0 1.0 0.01 0.06 0.03 93 1012.7
20260502161010 36 0 0.0 1.0 0.02 0.06 0.03 93 1012.6
20260502160510 36 0 0.0 1.0 0.02 0.06 0.03 93 1012.8
20260502152010 36 280 0.0 2.0 0.01 0.05 0.02 91 1012.3
20260502151547 36 280 0.0 2.0 0.01 0.05 0.02 91 1012.1
20260502151010 36 271 0.0 1.0 0.00 0.04 0.01 91 1012.1
20260502150510 36 273 0.0 1.0 0.00 0.04 0.01 91 1011.9
20260502130513 36 0 0.0 1.0 0.00 0.04 0.01 91 1009.6
20260502123511 36 0 0.0 1.0 0.00 0.04 0.01 90 1009.3
20260502123036 36 284 0.0 1.0 0.00 0.04 0.01 90 1009.4
20260502122511 36 0 0.0 0.0 0.00 0.04 0.01 89 1009.3
20260502122010 36 0 0.0 0.0 0.00 0.04 0.01 89 1009.4
20260502121530 36 0 0.0 0.0 0.00 0.04 0.01 89 1009.2
20260502121010 36 0 0.0 0.0 0.00 0.04 0.01 88 1009.3
20260502120507 36 0 0.0 0.0 0.00 0.04 0.01 88 1009.3
20260502115508 36 0 0.0 0.0 0.00 0.04 0.01 88 1009.2
20260502115009 36 0 0.0 0.0 0.00 0.04 0.01 88 1009.2
20260502114527 36 0 0.0 0.0 0.00 0.04 0.01 87 1009.2
20260502114009 36 0 0.0 0.0 0.00 0.04 0.01 87 1009.1
20260502113512 37 0 0.0 0.0 0.00 0.04 0.01 87 1009.0
20260502113026 37 0 0.0 1.0 0.00 0.04 0.01 87 1009.0
20260502112508 37 0 0.0 1.0 0.00 0.04 0.01 86 1008.8
20260502112010 37 284 0.0 0.0 0.00 0.04 0.01 86 1008.6
20260502111530 37 0 0.0 1.0 0.00 0.04 0.01 85 1008.8
20260502111007 37 0 0.0 1.0 0.01 0.04 0.01 84 1008.8
20260502110510 37 0 0.0 1.0 0.01 0.04 0.01 84 1008.7
20260502110028 37 0 0.0 0.0 0.01 0.04 0.01 84 1008.6
20260502105511 38 0 0.0 0.0 0.01 0.04 0.01 83 1008.6
20260502105010 38 0 0.0 0.0 0.01 0.04 0.01 81 1008.5
20260502104532 38 0 0.0 0.0 0.01 0.04 0.01 80 1008.4
20260502104009 39 0 0.0 2.0 0.01 0.04 0.01 79 1008.3
20260502103510 39 0 0.0 2.0 0.01 0.04 0.01 78 1008.3
20260502103029 40 275 0.0 2.0 0.01 0.04 0.01 75 1008.2
20260502102509 40 0 0.0 3.0 0.01 0.04 0.01 72 1008.0
20260502102009 40 126 0.0 3.0 0.01 0.04 0.01 72 1007.8
20260502101527 39 120 1.0 3.0 0.01 0.04 0.01 73 1007.9
20260502101009 39 0 0.0 1.0 0.00 0.03 0.00 77 1007.7
20260502100509 39 296 0.0 1.0 0.00 0.03 0.00 75 1007.6
20260502091530 39 134 0.0 2.0 0.00 0.03 0.00 73 1006.5
20260502091011 39 125 0.0 3.0 0.00 0.03 0.00 73 1006.2
20260502090509 39 0 0.0 3.0 0.00 0.03 0.00 74 1006.2
20260502071535 39 74 1.0 6.0 0.00 0.03 0.03 79 1004.5
20260502071010 39 0 1.0 7.0 0.00 0.03 0.03 78 1004.5
20260502070508 39 96 1.0 7.0 0.00 0.03 0.03 78 1004.4
20260502070030 39 99 1.0 6.0 0.00 0.03 0.03 78 1004.3
20260502065511 39 167 1.0 6.0 0.00 0.03 0.03 78 1004.2
20260502065010 39 66 1.0 8.0 0.00 0.03 0.03 79 1004.2
20260502064530 39 94 1.0 8.0 0.00 0.03 0.03 79 1004.0
20260502064016 39 90 1.0 5.0 0.00 0.03 0.03 80 1003.9
20260502063510 39 0 1.0 5.0 0.00 0.03 0.03 80 1003.8
20260502063028 39 118 1.0 5.0 0.01 0.03 0.03 80 1003.9
20260502062514 38 80 1.0 4.0 0.01 0.03 0.03 81 1003.8
20260502062010 38 113 1.0 3.0 0.01 0.03 0.03 82 1003.8
20260502061536 38 86 0.0 4.0 0.01 0.03 0.03 83 1003.7
20260502061010 38 124 0.0 5.0 0.01 0.03 0.03 83 1003.5
20260502060510 38 57 1.0 6.0 0.02 0.03 0.03 83 1003.5
20260502060029 38 71 1.0 6.0 0.02 0.03 0.03 83 1003.5
20260502055511 38 63 2.0 6.0 0.02 0.03 0.03 83 1003.3
20260502055010 38 25 1.0 3.0 0.03 0.03 0.03 84 1003.4
20260502054532 38 112 0.0 4.0 0.03 0.03 0.03 83 1003.3
20260502054012 38 78 1.0 4.0 0.03 0.03 0.03 84 1003.2
20260502053510 38 92 1.0 4.0 0.02 0.02 0.02 85 1003.1
20260502053030 38 141 0.0 4.0 0.02 0.02 0.02 86 1003.1
20260502052509 38 123 1.0 4.0 0.02 0.02 0.02 85 1003.0
20260502052011 38 120 1.0 4.0 0.02 0.02 0.02 86 1003.1
20260502051532 38 5 0.0 4.0 0.02 0.02 0.02 86 1003.1
20260502051009 38 43 1.0 4.0 0.02 0.02 0.02 85 1003.0
20260502050517 38 54 1.0 4.0 0.01 0.01 0.01 85 1003.0
20260502050030 38 79 0.0 7.0 0.01 0.01 0.01 84 1002.7
20260502045510 39 348 1.0 7.0 0.01 0.01 0.01 81 1002.8
20260502045011 39 80 1.0 4.0 0.00 0.00 0.00 81 1002.8
20260502044528 39 66 0.0 3.0 0.00 0.00 0.00 81 1002.5
20260502044017 39 0 0.0 4.0 0.00 0.00 0.00 81 1002.3
20260502043511 40 243 0.0 5.0 0.00 0.00 0.00 79 1002.4
20260502043030 40 119 1.0 5.0 0.00 0.00 0.00 78 1002.5
20260502042512 40 74 1.0 3.0 0.00 0.00 0.00 76 1002.2
20260502042017 40 117 0.0 4.0 0.00 0.00 0.00 74 1002.1
20260502041531 41 118 1.0 7.0 0.00 0.00 0.00 73 1002.2
20260502041009 41 0 0.0 7.0 0.00 0.00 0.00 73 1002.0
20260502040511 41 132 2.0 12.0 0.00 0.00 0.00 72 1002.0
20260502040028 41 138 3.0 12.0 0.00 0.00 0.00 71 1001.8
20260502035510 41 152 3.0 8.0 0.00 0.00 0.00 70 1001.7
20260502035014 41 0 1.0 7.0 0.00 0.00 0.00 70 1001.5
20260502034528 41 117 2.0 9.0 0.00 0.00 0.00 70 1001.6
20260502034010 41 61 2.0 9.0 0.00 0.00 0.00 70 1001.5
20260502033510 41 126 2.0 9.0 0.00 0.00 0.00 69 1001.5
20260502033032 41 90 3.0 8.0 0.00 0.00 0.00 69 1001.4
20260502032511 42 49 2.0 8.0 0.00 0.00 0.00 69 1001.4
20260502032009 42 78 2.0 6.0 0.00 0.00 0.00 69 1001.4
20260502031533 42 148 2.0 6.0 0.00 0.00 0.00 68 1001.3
20260502031012 42 70 2.0 9.0 0.00 0.00 0.00 68 1001.2
20260502030511 42 46 3.0 9.0 0.00 0.00 0.00 67 1001.2
20260502030028 42 248 1.0 7.0 0.00 0.00 0.00 66 1001.2
20260502025509 42 97 2.0 12.0 0.00 0.00 0.00 66 1001.2
20260502025010 42 101 2.0 12.0 0.00 0.00 0.00 65 1001.2
20260502024532 42 115 3.0 10.0 0.00 0.00 0.00 65 1001.1
20260502024013 42 141 1.0 8.0 0.00 0.00 0.00 65 1001.2
20260502023511 42 109 2.0 5.0 0.00 0.00 0.00 65 1001.3
20260502023030 42 89 1.0 4.0 0.00 0.00 0.00 65 1001.5
20260502022508 42 13 1.0 6.0 0.00 0.00 0.00 65 1001.4
20260502022012 42 78 1.0 7.0 0.00 0.00 0.00 64 1001.5
20260502021528 42 84 2.0 8.0 0.00 0.00 0.00 64 1001.5
20260502021014 42 74 1.0 8.0 0.00 0.00 0.00 64 1001.5
20260502020523 42 116 2.0 11.0 0.00 0.00 0.00 64 1001.6
20260502020030 43 148 2.0 11.0 0.00 0.00 0.00 63 1001.5
20260502015510 43 111 4.0 11.0 0.00 0.00 0.00 62 1001.3
20260502015010 43 104 2.0 8.0 0.00 0.00 0.00 62 1001.4
20260502014532 43 311 2.0 12.0 0.00 0.00 0.00 61 1001.4
20260502014011 43 77 3.0 12.0 0.00 0.00 0.00 61 1001.4
20260502013508 43 90 4.0 12.0 0.00 0.00 0.00 60 1001.6
20260502013030 43 113 2.0 9.0 0.00 0.00 0.00 60 1001.5
20260502012509 43 73 2.0 9.0 0.00 0.00 0.00 60 1001.6
20260502012010 43 90 2.0 8.0 0.00 0.00 0.00 59 1001.7
20260502011532 43 155 2.0 8.0 0.00 0.00 0.00 59 1001.6
20260502011009 44 78 2.0 8.0 0.00 0.00 0.00 58 1001.6
20260502010509 44 116 1.0 9.0 0.00 0.00 0.00 57 1001.6
20260502010030 44 92 2.0 9.0 0.00 0.00 0.00 57 1001.8
20260502005510 44 82 2.0 11.0 0.00 0.00 0.00 56 1001.7
20260502005012 44 138 3.0 13.0 0.00 0.00 0.00 57 1001.9
20260502004530 44 159 3.0 13.0 0.00 0.00 0.00 57 1002.0
20260502004008 43 82 2.0 11.0 0.00 0.00 0.00 57 1002.1
20260502003509 44 16 3.0 11.0 0.00 0.00 0.00 57 1002.1
20260502003029 44 86 3.0 11.0 0.00 0.00 0.00 57 1002.4
20260502002507 44 86 4.0 12.0 0.00 0.00 0.00 57 1002.4
20260502002012 44 136 5.0 12.0 0.00 0.00 0.00 56 1002.1
20260502001529 44 66 2.0 12.0 0.00 0.00 0.00 56 1002.2
20260502001009 44 103 3.0 12.0 0.00 0.00 0.00 56 1002.4
20260502000508 44 153 4.0 12.0 0.00 0.00 0.00 55 1002.3
20260502000029 44 97 3.0 10.0 0.00 0.00 0.00 55 1002.5
20260501235509 44 99 4.0 10.0 0.00 0.00 0.00 55 1002.6
20260501235010 44 137 3.0 12.0 0.00 0.00 0.00 55 1002.5
20260501234531 44 110 3.0 13.0 0.00 0.00 0.00 55 1002.6
20260501234007 44 123 3.0 13.0 0.00 0.00 0.00 54 1002.8
20260501233509 44 122 2.0 11.0 0.00 0.00 0.00 54 1002.8
20260501233030 44 24 3.0 10.0 0.00 0.00 0.00 53 1002.8
20260501232510 44 46 1.0 10.0 0.00 0.00 0.00 53 1002.8
20260501232011 45 71 1.0 9.0 0.00 0.00 0.00 53 1003.0
20260501231527 45 142 3.0 9.0 0.00 0.00 0.00 52 1003.4
20260501231011 45 98 4.0 15.0 0.00 0.00 0.00 52 1003.2
20260501230512 45 48 3.0 16.0 0.00 0.00 0.00 52 1003.1